www.pogodaiklimat.ru

Погода и климат >> Архив погоды >> Камерун >> Douala


АРХИВ ПОГОДЫ в Douala

Время (UTC), дата Ветер
(напр.,м/с)
 
Видим.   Явления Облачность Т
(С)
Тd
(С)
f
(%)
Тe
(С)
Тes
(С)
Комфортность P
(гПа)
Po
(гПа)
Тmin
(С)
Tmax
(С)
R
(мм)
R24
(мм)
S
(см)
21 10.07 ЮЗ 1 10 км 6/5 480 м
[Cb calv Ci sp]
+26.5 +24.4 88 +37 +37 очень
душно
1016.0 1015.0
00 11.07 штиль 0 10 км 8/8 480 м
[Cb calv]
+25.0 +24.3 96 +35 +35 очень
душно
1014.4 1013.4
03 11.07 штиль 0 10 км гроза без осадков 6/6 480 м
[Cb cap]
+24.7 +23.7 94 +34 +34 очень
душно
1014.0 1013.0
09 11.07 штиль 0 10 км {гроза, туман} 9/9 480 м
[Cb calv]
+28.6 +23.4 73 +39 +40 очень
душно
1015.7 1014.7
12 11.07 Ю 2 10 км {гроза} 8/8 600 м
[Cb calv]
+31.5 +24.8 68 +45 +49 опасность
перегрева
1014.0 1013.0
21 11.07 штиль 0 10 км 9/9 480 м
[Cb calv]
+26.3 +25.2 94 +38 +38 очень
душно
1014.4 1013.4
00 12.07 штиль 0 10 км 8/8 480 м
[Cb calv]
+25.7 +25.0 96 +37 +37 очень
душно
1014.3 1013.3
03 12.07 штиль 0 7000 м гроза без осадков 9/9 480 м
[Cb cap]
+25.0 +23.7 93 +34 +34 очень
душно
1013.8 1012.8
06 12.07 штиль 0 6000 м гроза без осадков 9/6 480 м
[Cb cap Ci ing]
+24.5 +23.9 96 +33 +34 очень
душно
1014.3 1013.3 +23.8
09 12.07 штиль 0 5000 м {гроза} 9/9 480 м
[Cb calv]
+27.7 +25.3 87 +40 +42 очень
душно
1015.3 1014.3
12 12.07 З 3 7000 м 9/9 480 м
[Cb cap]
+27.8 +25.3 86 +40 +42 очень
душно
1013.9 1012.9
03 13.07 С 1 10 км осадки на расстоянии {гроза} 10/8 400 м
[Cb cap Ac cuf]
+25.2 +23.5 90 +34 +34 очень
душно
1013.8 1012.8
06 13.07 штиль 0 6000 м гроза без осадков 9/6 400 м
[Cb cap Ac cuf]
+24.5 +23.8 96 +33 +34 очень
душно
1014.4 1013.4 +24.5
09 13.07 штиль 0 10 км гроза без осадков {снег} 9/9 400 м
[Cb cap Ac cuf]
+28.0 +23.7 77 +38 +40 очень
душно
1015.7 1014.7
15 13.07 ЮЗ 3 10 км {гроза} 5/4 480 м
[Cb cap Ac trans]
+29.5 +23.8 71 +40 +43 очень
душно
1012.1 1011.1
18 13.07 Ю 3 10 км гроза без осадков 8/6 480 м
[Cb cap Ci ing]
+26.8 +22.4 77 +35 +35 очень
душно
1012.4 1011.4 +29.5
03 14.07 штиль 0 6000 м гроза без осадков {дождь} 8/6 400 м
[Cb cap]
+24.0 +23.3 96 +32 +32 очень
душно
1013.1 1012.1
09 14.07 З 1 10 км 9/6 400 м
[Cb cap Ac cuf]
+27.2 +23.8 82 +37 +40 очень
душно
1015.1 1014.1
12 14.07 З 5 10 км 9/9 480 м
[Cb cap]
+30.5 +23.2 65 +41 +42 опасность
перегрева
1013.8 1012.8
15 14.07 ЮЗ 3 10 км 5/4 600 м
[Cb cap]
+30.3 +23.9 69 +42 +45 опасность
перегрева
1011.2 1010.2
18 14.07 ЮЗ 4 10 км гроза без осадков 9/5 480 м
[Cb cap Ac cuf Ci ing]
+28.2 +23.4 75 +38 +38 очень
душно
1012.0 1011.0 +31.5
03 15.07 штиль 0 10 км гроза без осадков {дождь} 9/8 400 м
[Cb cap Ac As]
+24.3 +23.9 98 +33 +33 очень
душно
1012.7 1011.7
09 15.07 Ю 1 10 км гроза без осадков 9/6 450 м
[Cb cap Ac cuf]
+26.6 +24.4 88 +37 +41 очень
душно
1014.8 1013.8
12 15.07 ЮЗ 6 10 км гроза без осадков 9/9 480 м
[Cb cap]
+28.0 +24.4 81 +39 +40 очень
душно
1013.9 1012.9
15 15.07 ЮЗ 2 10 км гроза без осадков 8/6 480 м
[Cb cap]
+29.0 +23.4 72 +39 +41 очень
душно
1011.9 1010.9
18 15.07 штиль 0 10 км гроза без осадков 9/9 480 м
[Cb cap]
+26.5 +23.7 85 +36 +36 очень
душно
1012.1 1011.1 +29.6
21 15.07 штиль 0 10 км гроза без осадков 9/9 480 м
[Cb cap]
+26.0 +24.6 92 +37 +37 очень
душно
1014.2 1013.2
00 16.07 штиль 0 10 км гроза без осадков 9/9 480 м
[Cb cap]
+25.8 +24.7 94 +37 +37 очень
душно
1014.1 1013.1
03 16.07 штиль 0 4000 м гроза, ливневой дождь 10/10 400 м
[Cb cap]
+25.0 +24.2 95 +34 +34 очень
душно
1013.6 1012.6
09 16.07 ЮЗ 2 3000 м гроза, ливневой дождь 10/8 90 м
[Cb cap Ac As]
+25.0 +24.5 97 +35 +36 очень
душно
1015.8 1014.8
12 16.07 ЮЗ 4 10 км в посл. час гроза {дождь} 9/6 480 м
[Cb cap Ac trans]
+26.0 +24.6 92 +37 +40 очень
душно
1014.4 1013.4 35
15 16.07 ЮЗ 1 10 км 9/8 480 м
[Cb calv Cc]
+29.0 +25.6 82 +43 +44 опасность
перегрева
1012.5 1011.5
18 16.07 ЮЗ 3 10 км 8/8 480 м
[Cb cap]
+26.4 +23.7 85 +36 +36 очень
душно
1013.5 1012.5 +29.2 35
00 17.07 штиль 0 10 км 6/6 480 м
[Cb calv]
+25.0 +23.6 92 +34 +34 очень
душно
1014.9 1013.9
03 17.07 ЮЗ 1 10 км 9/8 480 м
[Cb calv Ac und]
+24.8 +24.4 98 +35 +35 очень
душно
1014.0 1013.0
06 17.07 штиль 0 3000 м гроза без осадков {дождь} 9/8 480 м
[Cb cap Ac cuf]
+24.7 +24.5 99 +35 +35 очень
душно
1014.5 1013.5 +24.3 36
09 17.07 Ю 2 10 км гроза без осадков 9/6 90 м
[Cb cap Ac cuf]
+25.4 +24.3 94 +35 +38 очень
душно
1015.8 1014.8
12 17.07 З 4 10 км {гроза} 8/5 600 м
[Cb calv Ac cuf Ci ing]
+28.5 +23.3 73 +38 +43 очень
душно
1014.6 1013.6
18 17.07 ЮЗ 3 10 км 9/9 400 м
[Cb cap]
+26.8 +25.0 90 +39 +39 очень
душно
1012.7 1011.7 +30.7

 

Местоположение метеостанции Douala (Камерун): широта 4.00 долгота 9.73 высота над уровнем моря 9 м.

В архиве по умолчанию представлена погода в Douala за последнюю неделю. Архивные данные за месяц целиком и за предыдущие месяцы, начиная с января 2011 года, Вы можете получить, выбрав интересующий диапазон дат из раскрывающегося списка и нажав кнопку "Ввод!".


*Определитесь, кто Вы:
робот инопланетянин человек

Внимание! Время в таблицах - всемирное. Для получения местного времени необходимо прибавить поправку, которая в Douala равна 1 ч.

Смотрите также архив погоды в соседних городах и на ближайших метеорологических станциях:

Погода в Malabo (Экваториальная Гвинея) (116 км)
Погода в Kalabar (Нигерия) (188 км)
Погода в Bata (Экваториальная Гвинея) (233 км)
Погода в Bitam (Габон) (289 км)
Погода в Port Harcourt (Нигерия) (315 км)
Погода в Oyem (Габон) (338 км)
Погода в Enugu (Нигерия) (365 км)
Погода в Libreville (Габон) (396 км)
Погода в Makurdi (Нигерия) (436 км)
Погода в Makokou (Габон) (517 км)

Пояснения к столбцам:

Ветер - указаны скорость ветра в м/с - средняя за 10 мин, порывы в срок и между сроками (в фигурных скобках) и направление, откуда дует ветер: С - северный, СВ - северо-восточный, В - восточный, ЮВ - юго-восточный, Ю - южный, ЮЗ - юго-западный, З - западный, СЗ - северо-западный.
Видимость - горизонтальная дальность видимости в метрах или километрах. При видимости от 1 до 10 км при отсутствии осадков обычно наблюдается дымка, при ухудшении видимости до 1 км и менее - туман. В сухую погоду видимость может ухудшаться дымом, пылью или мглою.
Явления - указаны атмосферные явления, наблюдавшиеся в срок или в последний час перед сроком; фигурными скобками обозначены явления, наблюдавшиеся между сроками (за 1-3 часа до срока); квадратными скобками обозначены град или гололедные отложения с указанием их диаметра в мм.
Облачность - указаны через наклонную черту общая и нижняя облачность в баллах и высота нижней границы облаков в метрах; квадратными скобками обозначены формы облаков: Ci - перистые, Cs - перисто-слоистые, Cc - перисто-кучевые, Ac - высококучевые, As - высокослоистые, Sc - слоисто-кучевые, Ns - слоисто-дождевые, Cu - кучевые, Cb - кучево-дождевые. Подробнее классификацию облаков см. в Атласе облаков (PDF).
T - Температура воздуха - температура, измеренная на высоте 2 м над землей.
Td - Температура точки росы - температура, при понижении до которой содержащийся в воздухе водяной пар достигнет насыщения.
f - Относительная влажность воздуха - влажноcть воздуха, измеренная на высоте 2 м над землей.
Te - Эффективная температура - температура, которую ощущает одетый по сезону человек в тени. Характеристика душности погоды. При расчете учитывается влияние влажности воздуха и скорости ветра на теплоощущения человека.
Tes - Эффективная температура на солнце - температура, которую ощущает человек, с поправкой на солнечный нагрев. Характеристика знойности погоды. Зависит от высоты солнца над горизонтом, облачности и скорости ветра. Ночью, в пасмурную погоду, а также при ветре 12 м/с и более поправка равна нулю.
P - Атмосферное давление - приведенное к уровню моря атмосферное давление.
Po - Атмосферное давление - измеренное на уровне метеостанции атмосферное давление.
Tmin - Минимальная температура - минимум температуры воздуха на высоте 2 м над землей.
Tmax - Максимальная температура - максимум температуры воздуха на высоте 2 м над землей.
R - Количество осадков - Количество выпавших осадков за период времени, мм. При наведении курсора мыши на число - период времени, за который выпало указанное количество осадков.
R24 - Количество осадков - Количество выпавших осадков за 24 часа, мм.
S - Снежный покров - Высота снежного покрова, см. При наведении курсора мыши на число - состояние снежного покрова и степень покрытия местности в баллах.